This is the latest recevied weather packets stored in our database for station/object DD3FC-1. If no packets are shown the sender has not sent any weather packets the latest 10 day(s).
| Time | Temp. | Humidity | Pressure | Rain* | Wind** | Luminosity | Snow |
|---|---|---|---|---|---|---|---|
| 1777293063 | 24.44° C | 27% | 1022.2 hPa | 0 mm | - | - | - |
| 1777292463 | 24.44° C | 27% | 1022.2 hPa | 0 mm | - | - | - |
| 1777291863 | 24.44° C | 27% | 1022.4 hPa | 0 mm | - | - | - |
| 1777291263 | 24.44° C | 28% | 1022.5 hPa | 0 mm | - | - | - |
| 1777290663 | 24.44° C | 27% | 1022.5 hPa | 0 mm | - | - | - |
| 1777290063 | 25° C | 27% | 1022.7 hPa | 0 mm | - | - | - |
| 1777289463 | 25° C | 26% | 1022.7 hPa | 0 mm | - | - | - |
| 1777288863 | 23.89° C | 28% | 1022.9 hPa | 0 mm | - | - | - |
| 1777288263 | 23.89° C | 27% | 1023 hPa | 0 mm | - | - | - |
| 1777287663 | 23.33° C | 29% | 1023.1 hPa | 0 mm | - | - | - |
| 1777287063 | 22.22° C | 31% | 1023.2 hPa | 0 mm | - | - | - |
| 1777286463 | 21.67° C | 31% | 1023.4 hPa | 0 mm | - | - | - |
| 1777285863 | 22.22° C | 30% | 1023.5 hPa | 0 mm | - | - | - |
| 1777285263 | 22.22° C | 31% | 1023.6 hPa | 0 mm | - | - | - |
| 1777284663 | 21.67° C | 32% | 1023.8 hPa | 0 mm | - | - | - |
| 1777284063 | 21.67° C | 32% | 1023.7 hPa | 0 mm | - | - | - |
| 1777283463 | 21.67° C | 32% | 1023.7 hPa | 0 mm | - | - | - |
| 1777282863 | 21.67° C | 33% | 1023.8 hPa | 0 mm | - | - | - |
| 1777282263 | 20.56° C | 34% | 1023.8 hPa | 0 mm | - | - | - |
| 1777281663 | 20.56° C | 34% | 1023.9 hPa | 0 mm | - | - | - |
| 1777281063 | 20° C | 36% | 1024 hPa | 0 mm | - | - | - |
| 1777280463 | 20° C | 36% | 1024.1 hPa | 0 mm | - | - | - |
| 1777279863 | 18.89° C | 38% | 1024.3 hPa | 0 mm | - | - | - |
| 1777279263 | 18.33° C | 39% | 1024.4 hPa | 0.25 mm | - | - | - |
| 1777278663 | 18.33° C | 41% | 1024.6 hPa | 0.25 mm | - | - | - |
* Rain latest hour (hover to see other rain measurements)
** Current wind speed in m/s (hover to see current wind gust speed)